Minot AFB, ND

3:17 AM CDT on May 26, 2018 (GMT -0500)
Minot Air Force Base

Weather History for KMIB - December, 2013

Change the Weather History Date:

Monday, December 16, 2013

  Actual Average Record
Temperature  
Mean Temperature 24 °F -  
Max Temperature 32 °F 22 °F 44 °F (1997)
Min Temperature 17 °F 6 °F -18 °F (2008)
Degree Days  
Heating Degree Days 40    
Moisture  
Dew Point 24 °F    
Average Humidity 85    
Maximum Humidity 100    
Minimum Humidity 73    
Precipitation  
Precipitation 0.00 in - - ()
Snow  
Snow 0.00 in - - ()
Snow Depth 8.00 in    
Sea Level Pressure  
Sea Level Pressure 29.88 in    
Wind  
Wind Speed 18 mph (WNW)    
Max Wind Speed 31 mph    
Max Gust Speed 40 mph    
Visibility 8 miles    
Events Rain , Snow    
Averages and records for this station are not official NWS values.
T = Trace of Precipitation, MM = Missing Value Source: NWS Daily Summary

Daily Weather History Graph

Daily Weather History Graph

Search for Another Location

Airport or City:

Astronomy

Dec. 16, 2013 Rise Set
Actual Time 8:31 AM CST 4:51 PM CST
Civil Twilight 7:54 AM CST 5:27 PM CST
Nautical Twilight 7:14 AM CST 6:07 PM CST
Astronomical Twilight 6:36 AM CST 6:46 PM CST
Moon 4:47 PM CST (12/16) 7:36 AM CST (12/16)
Length of Visible Light 9h 33m
Length of Day
8h 19m
Full, 100% of the Moon is Illuminated
Dec 16
Full
Dec 17
Full
Dec 25
Last Quarter
Jan 1
New
Jan 7
First Quarter

Hourly Weather History & Observations

Time (CST) Temp. Windchill Dew Point Humidity Pressure Visibility Wind Dir Wind Speed Gust Speed Precip Events Conditions
12:58 AM 17.1 °F 7.6 °F 13.8 °F 87% 29.86 in 10.0 mi WSW 6.9 mph - N/A   Mostly Cloudy
1:38 AM 21.2 °F 10.9 °F 19.4 °F 93% 29.74 in 8.0 mi West 9.2 mph - N/A Snow Light Snow
1:43 AM 23.0 °F 11.7 °F 21.2 °F 93% 29.75 in 5.0 mi WNW 11.5 mph - N/A Snow Light Snow
1:48 AM 24.8 °F 12.4 °F 23.0 °F 93% 29.75 in 3.0 mi WNW 15.0 mph - N/A Snow Light Snow
1:58 AM 26.4 °F 13.6 °F 25.9 °F 98% 29.86 in 3.0 mi WNW 17.3 mph - 0.00 in   Overcast
1:59 AM 26.6 °F 13.4 °F 26.6 °F 100% 29.75 in 3.0 mi WNW 18.4 mph - N/A Snow Light Snow
2:08 AM 28.4 °F 16.2 °F 28.4 °F 100% 29.75 in 2.0 mi WNW 17.3 mph - N/A Snow Light Snow
2:13 AM 30.2 °F 18.5 °F 30.2 °F 100% 29.75 in 1.8 mi WNW 17.3 mph - N/A Snow Light Snow
2:38 AM 32.0 °F 21.2 °F 32.0 °F 100% 29.73 in 2.5 mi West 16.1 mph - N/A Snow Light Snow
2:43 AM 32.0 °F 20.8 °F 32.0 °F 100% 29.73 in 6.0 mi West 17.3 mph - N/A Snow Light Snow
2:47 AM 32.0 °F 20.5 °F 32.0 °F 100% 29.73 in 10.0 mi West 18.4 mph - N/A Rain Light Freezing Rain
3:09 AM 32.0 °F 21.6 °F 32.0 °F 100% 29.73 in 10.0 mi West 15.0 mph - N/A   Clear
3:58 AM 32.5 °F 20.5 °F 28.6 °F 85% 29.84 in 10.0 mi WNW 20.7 mph - 0.00 in   Clear
4:58 AM 29.7 °F 17.1 °F 23.7 °F 79% 29.86 in 10.0 mi WNW 19.6 mph - N/A   Clear
5:58 AM 28.9 °F 15.8 °F 22.5 °F 77% 29.89 in 10.0 mi WNW 20.7 mph - N/A   Clear
6:58 AM 28.2 °F 15.2 °F 21.7 °F 77% 29.91 in 10.0 mi WNW 19.6 mph - N/A   Clear
7:58 AM 25.2 °F 12.4 °F 18.7 °F 76% 29.93 in 10.0 mi West 16.1 mph - N/A   Clear
8:58 AM 24.1 °F 12.0 °F 17.1 °F 75% 29.94 in 10.0 mi West 13.8 mph - N/A   Clear
9:58 AM 24.1 °F 11.5 °F 17.1 °F 75% 29.96 in 10.0 mi West 15.0 mph - N/A   Clear
10:58 AM 25.5 °F 12.4 °F 18.3 °F 74% 29.96 in 10.0 mi West 17.3 mph - N/A   Clear
11:58 AM 28.8 °F 15.5 °F 21.2 °F 73% 29.95 in 10.0 mi West 20.7 mph - N/A   Clear
12:58 PM 30.6 °F 18.2 °F 23.7 °F 76% 29.94 in 10.0 mi West 19.6 mph - N/A   Clear
1:58 PM 32.5 °F 19.9 °F 25.7 °F 76% 29.92 in 10.0 mi West 23.0 mph 31.1 mph N/A   Clear
2:58 PM 31.8 °F 18.7 °F 27.0 °F 82% 29.91 in 10.0 mi West 24.2 mph - N/A   Clear
3:58 PM 31.6 °F 18.4 °F 27.3 °F 84% 29.93 in 10.0 mi West 24.2 mph - N/A   Clear
4:58 PM 32.7 °F 19.6 °F 28.6 °F 85% 29.94 in 10.0 mi West 25.3 mph 32.2 mph N/A   Mostly Cloudy
5:58 PM 32.0 °F 18.9 °F 28.2 °F 86% 29.94 in 10.0 mi WNW 24.2 mph 32.2 mph N/A   Partly Cloudy
6:58 PM 31.8 °F 18.4 °F 27.3 °F 83% 29.94 in 10.0 mi WNW 25.3 mph 33.4 mph N/A   Clear
7:28 PM 32.0 °F 17.9 °F 26.6 °F 80% 29.87 in 9.0 mi WNW 28.8 mph 36.8 mph N/A   Clear
7:38 PM 32.0 °F 17.6 °F 26.6 °F 80% 29.88 in 7.0 mi WNW 29.9 mph 36.8 mph N/A   Light Drizzle
7:58 PM 30.2 °F 15.2 °F 26.1 °F 85% 29.96 in 6.0 mi WNW 29.9 mph 40.3 mph 0.00 in   Light Freezing Rain
8:28 PM 28.4 °F 12.5 °F 24.8 °F 86% 29.89 in 4.0 mi WNW 31.1 mph 40.3 mph N/A   Light Freezing Rain
8:38 PM 28.4 °F 13.0 °F 24.8 °F 86% 29.89 in 6.0 mi WNW 28.8 mph 34.5 mph N/A   Light Freezing Rain
8:43 PM 28.4 °F 13.0 °F 24.8 °F 86% 29.89 in 7.0 mi WNW 28.8 mph 34.5 mph N/A   Clear
8:53 PM 28.4 °F 13.5 °F 23.0 °F 80% 29.89 in 9.0 mi WNW 26.5 mph - N/A   Clear
8:58 PM 28.2 °F 13.3 °F 23.5 °F 83% 29.99 in 10.0 mi WNW 26.5 mph 33.4 mph 0.00 in   Clear
9:18 PM 28.4 °F 13.5 °F 23.0 °F 80% 29.90 in 9.0 mi WNW 26.5 mph 33.4 mph N/A   Clear
9:23 PM 28.4 °F 13.3 °F 23.0 °F 80% 29.90 in 9.0 mi WNW 27.6 mph 34.5 mph N/A   Clear
9:38 PM 28.4 °F 13.3 °F 23.0 °F 80% 29.91 in 9.0 mi WNW 27.6 mph 35.7 mph N/A   Clear
9:43 PM 28.4 °F 13.5 °F 23.0 °F 80% 29.91 in 10.0 mi WNW 26.5 mph 32.2 mph N/A   Clear
9:58 PM 27.7 °F 12.8 °F 22.5 °F 81% 30.00 in 10.0 mi WNW 25.3 mph - N/A   Clear
10:58 PM 26.4 °F 11.8 °F 21.2 °F 81% 30.03 in 10.0 mi WNW 23.0 mph - N/A   Clear
11:58 PM 25.0 °F 9.2 °F 19.8 °F 81% 30.05 in 10.0 mi WNW 25.3 mph 32.2 mph N/A   Clear